If you wish to contribute or participate in the discussions about articles you are invited to join SKYbrary as a registered user

 Actions

Landivisiau Air Base

From SKYbrary Wiki

LFRJ /
Revision as of 20:14, 16 February 2015 by Timo.Kouwenhoven (talk | contribs) (LF Airports CSV import)
(diff) ← Older revision | Latest revision (diff) | Newer revision → (diff)
Airport
ICAO: LFRJ
Summary
Name Landivisiau Air Base
Region Europe
Territory France FR.gif
Location , Bretagne
Serving Landivisiau
Elevation 106.07 m
348 ft
348 ft106.07 m
Type medium airport
Coordinates 48° 31' 48.93" N, 4° 9' 5.91" W
Runways
Designator Length Width Surface ROPS
8/26 2700 m8,858.268 ft
45 m147.638 ft
CON /


METAR
Observation LFRJ 171400Z AUTO 23020KT 9999 BKN026/// BKN031/// BKN046/// ///CB 15/09 Q1006 TEMPO 22015G27KT 4000 SHRA
Station Landivisiau
Date/Time 17 October 2019 14:00:00
Wind direction 230°
Wind speed 20 kts
Lowest cloud amount broken clouds
Temperature 15°C
Dew point 9°C
Humidity 67%
QNH 1006 hPa
Weather condition n/a